Chadron, NE

6:57 PM MST on December 04, 2016 (GMT -0700)
Chadron Municipal

Weather History for KCDR - December, 2011

Change the Weather History Date:

Sunday, December 4, 2011

  Actual Average Record
Temperature  
Mean Temperature 20 °F 26 °F  
Max Temperature 34 °F 40 °F 72 °F (1980)
Min Temperature 6 °F 12 °F -7 °F (2005)
Degree Days  
Heating Degree Days 45 39  
Month to date heating degree days 174 154  
Since 1 July heating degree days 1650 1838  
Cooling Degree Days 0 0  
Month to date cooling degree days 0 0  
Year to date cooling degree days 902 712  
Moisture  
Dew Point 13 °F    
Average Humidity 69    
Maximum Humidity 88    
Minimum Humidity 49    
Precipitation  
Precipitation T in 0.02 in 0.25 in (1960)
Month to date precipitation T 0.07  
Year to date precipitation 17.55 17.60  
Sea Level Pressure  
Sea Level Pressure 30.30 in    
Wind  
Wind Speed 8 mph (North)    
Max Wind Speed 23 mph    
Max Gust Speed 31 mph    
Visibility 6 miles    
Events Snow    
T = Trace of Precipitation, MM = Missing Value Source: NWS Daily Summary

Daily Weather History Graph

Daily Weather History Graph

Search for Another Location

Airport or City:

Trip Planner

Search our weather history database for the weather conditions in past years. The results will help you decide how hot, cold, wet, or windy it might be!

Date:

Astronomy

Dec. 04, 2011 Rise Set
Actual Time 7:06 AM MST 4:18 PM MST
Civil Twilight 6:34 AM MST 4:50 PM MST
Nautical Twilight 5:59 AM MST 5:25 PM MST
Astronomical Twilight 5:24 AM MST 5:59 PM MST
Moon 12:55 PM MST (12/4) 1:27 AM MST (12/4)
Length of Visible Light 10h 15m
Length of Day
9h 12m
Waxing Gibbous, 72% of the Moon is Illuminated
Dec 4
Waxing Gibbous
Dec 10
Full
Dec 17
Last Quarter
Dec 24
New
Dec 31
First Quarter

Hourly Weather History & Observations

Time (MST) Temp. Windchill Dew Point Humidity Pressure Visibility Wind Dir Wind Speed Gust Speed Precip Events Conditions
12:53 AM 7.0 °F -4.5 °F 3.0 °F 84% 30.22 in 10.0 mi SW 6.9 mph - N/A   Clear
1:53 AM 8.1 °F - 3.9 °F 83% 30.20 in 10.0 mi Calm Calm - N/A   Clear
2:53 AM 9.0 °F 2.4 °F 5.0 °F 84% 30.19 in 10.0 mi SW 3.5 mph - N/A   Clear
3:53 AM 10.9 °F - 5.0 °F 77% 30.18 in 10.0 mi Calm Calm - N/A   Clear
4:53 AM 10.9 °F - 6.1 °F 81% 30.19 in 10.0 mi Calm Calm - N/A   Clear
5:53 AM 15.1 °F 3.3 °F 9.0 °F 77% 30.20 in 10.0 mi WSW 9.2 mph - N/A   Overcast
6:53 AM 18.0 °F 8.7 °F 10.9 °F 74% 30.21 in 10.0 mi WSW 6.9 mph - N/A   Overcast
7:53 AM 21.0 °F 11.4 °F 14.0 °F 74% 30.23 in 10.0 mi WSW 8.1 mph - N/A   Overcast
8:53 AM 26.1 °F 14.5 °F 17.1 °F 69% 30.23 in 10.0 mi West 13.8 mph - N/A   Scattered Clouds
9:53 AM 30.9 °F 17.8 °F 19.0 °F 61% 30.24 in 10.0 mi WNW 23.0 mph 28.8 mph N/A   Clear
10:53 AM 33.1 °F 22.2 °F 18.0 °F 54% 30.26 in 10.0 mi NW 17.3 mph 26.5 mph N/A   Clear
11:53 AM 32.0 °F 22.5 °F 15.1 °F 50% 30.29 in 10.0 mi NW 12.7 mph 20.7 mph N/A   Mostly Cloudy
12:53 PM 28.9 °F 19.8 °F 18.0 °F 64% 30.32 in 5.0 mi NE 10.4 mph - 0.00 in Snow Light Snow
1:47 PM 26.6 °F 15.2 °F 19.4 °F 74% 30.17 in 1.8 mi NNE 13.8 mph - 0.00 in Snow Light Snow
1:53 PM 26.1 °F 15.6 °F 19.9 °F 78% 30.35 in 0.8 mi NE 11.5 mph - 0.00 in Snow Light Snow
2:05 PM 26.6 °F 17.5 °F 19.4 °F 74% 30.18 in 1.5 mi NE 9.2 mph - 0.00 in Snow Light Snow
2:17 PM 26.6 °F 18.2 °F 21.2 °F 80% 30.18 in 2.5 mi NE 8.1 mph - 0.00 in Snow Light Snow
2:24 PM 26.6 °F 18.2 °F 19.4 °F 74% 30.19 in 3.0 mi ENE 8.1 mph - 0.00 in   Haze
2:53 PM 27.0 °F - 19.0 °F 72% 30.39 in 8.0 mi Calm Calm - 0.00 in   Overcast
3:13 PM 24.8 °F 13.4 °F 17.6 °F 74% 30.23 in 1.5 mi NNE 12.7 mph 24.2 mph 0.00 in Snow Light Snow
3:23 PM 24.8 °F 12.9 °F 17.6 °F 74% 30.24 in 0.8 mi NE 13.8 mph - 0.00 in Snow Light Snow
3:35 PM 23.0 °F 14.7 °F 17.6 °F 80% 30.25 in 0.2 mi NE 6.9 mph - 0.00 in Snow Heavy Snow
3:39 PM 23.0 °F 13.9 °F 17.6 °F 80% 30.25 in 0.5 mi NNE 8.1 mph - 0.00 in Snow Snow
3:48 PM 23.0 °F 13.1 °F 15.8 °F 74% 30.25 in 2.0 mi NNE 9.2 mph - 0.00 in Snow Light Snow
3:49 PM 23.0 °F 12.4 °F 16.0 °F 74% 30.44 in 2.5 mi NNE 10.4 mph - 0.00 in Snow Light Snow
3:51 PM 23.0 °F 11.7 °F 15.8 °F 74% 30.26 in 3.0 mi NNE 11.5 mph - 0.00 in Snow Light Snow
4:12 PM 21.2 °F 8.3 °F 12.2 °F 68% 30.28 in 1.8 mi NNE 13.8 mph - N/A Snow Light Snow
4:26 PM 21.2 °F 10.9 °F 14.0 °F 74% 30.29 in 3.0 mi NNE 9.2 mph - 0.00 in Snow Light Snow
4:53 PM 21.0 °F 9.9 °F 12.0 °F 68% 30.51 in 8.0 mi NNE 10.4 mph - 0.00 in   Overcast
8:53 PM 9.0 °F 0.6 °F 1.9 °F 73% 30.62 in 10.0 mi WNW 4.6 mph - N/A   Clear
9:53 PM 8.1 °F -4.3 °F 1.0 °F 73% 30.62 in 10.0 mi NNW 8.1 mph - N/A   Mostly Cloudy
10:53 PM 9.0 °F 2.4 °F 1.0 °F 70% 30.64 in 10.0 mi NW 3.5 mph - N/A   Overcast
11:53 PM 7.0 °F -1.7 °F 1.9 °F 80% 30.66 in 10.0 mi SW 4.6 mph - N/A   Overcast